Lid_Strength_Index
3 2 3 3 4 4 5 5 5 6 8 9 8 9 8 7 7 7 6 7 7 7 8 8 9 8 9 9 9 10 10 10 9 10 9 8 7 7 7 7 7 7 7
4 4 4 4 5 5 5 6 9 8 8 8 9 7 8 6 5 5 6 6 7 7 8 8 9 9 9 9 9 10 10 9 8 9 9 12 9 8 8 7 6 6 6
5 5 5 5 5 6 7 8 8 8 8 8 7 7 6 5 6 7 8 7 7 7 7 8 8 9 9 9 9 9 9 9 9 8 9 12 13 10 9 8 7 7 7
5 5 6 6 6 7 7 7 8 8 8 7 7 7 7 8 7 8 8 7 7 7 7 7 8 8 8 8 8 7 8 8 9 8 7 9 10 12 12 9 8 7 8
5 6 6 6 7 7 7 6 7 8 7 7 6 7 7 8 8 7 7 7 7 7 7 7 7 7 7 7 7 7 8 7 8 10 10 9 9 9 11 12 10 9 8
6 6 6 6 7 6 6 7 8 8 7 6 6 7 8 8 8 8 8 9 8 7 6 6 7 6 6 7 7 7 6 7 8 9 8 9 10 10 10 11 11 11 9
6 6 7 7 6 6 7 7 7 8 6 6 7 7 7 7 8 9 9 9 8 7 7 6 6 6 6 6 6 7 7 7 9 9 8 8 8 8 9 10 11 11 10
6 6 6 6 6 7 7 7 7 7 6 7 7 7 7 8 8 8 7 7 7 7 6 6 5 5 5 6 6 7 6 7 7 7 8 7 8 8 9 10 11 12 11
6 6 6 6 6 7 7 7 7 7 7 7 7 7 7 7 7 7 6 7 6 6 6 5 6 6 6 6 7 7 7 7 7 7 7 7 7 7 8 9 9 11 13
6 6 6 6 7 7 6 7 6 6 6 7 7 8 7 6 6 6 7 7 6 6 6 6 6 6 6 6 7 8 7 8 8 7 7 7 7 8 8 8 8 9 10
6 6 6 7 7 7 7 6 6 6 7 7 7 7 6 7 7 7 7 7 6 6 6 6 6 6 7 7 7 8 8 9 8 8 8 8 7 8 8 8 8 8 9
5 5 6 7 8 7 6 6 5 6 7 7 7 6 6 7 7 7 7 6 6 6 6 6 6 7 7 7 8 9 9 9 9 9 9 8 7 8 8 8 8 8 8
5 6 6 8 8 7 6 6 6 7 7 7 7 7 7 8 8 7 7 6 6 6 6 6 7 7 7 7 8 9 9 9 9 9 9 8 8 8 8 8 8 8 7
5 6 6 7 7 7 6 6 6 7 7 7 7 8 8 8 7 7 7 6 6 6 6 6 7 7 7 8 8 9 10 10 9 8 8 8 7 7 7 7 7 7 8
6 6 7 8 8 8 6 6 7 7 7 7 8 8 7 7 7 7 6 6 6 6 6 7 7 7 7 8 9 10 10 10 9 8 7 6 6 5 5 6 7 6 7
5 6 8 8 8 7 6 7 7 7 7 8 8 8 7 7 7 6 6 6 6 6 7 7 7 8 7 7 8 9 10 9 8 9 8 6 5 5 5 4 5 5 6
6 8 8 8 8 7 6 7 7 7 8 8 8 7 7 7 6 6 6 6 7 7 7 7 7 8 9 8 8 9 9 9 9 9 8 7 5 5 6 5 5 4 4
8 9 8 7 7 6 6 6 7 8 8 8 8 7 6 6 6 6 6 7 7 7 7 7 7 8 8 7 8 8 10 10 9 8 7 7 6 6 6 5 5 5 4
8 7 7 6 6 6 6 7 7 8 8 8 7 6 6 6 6 6 7 7 7 8 8 7 7 8 8 8 8 9 10 10 9 8 7 7 6 5 4 5 5 5 5
7 7 6 5 6 6 6 7 8 8 9 7 6 6 5 6 6 7 7 7 8 8 8 8 7 7 8 8 9 10 10 10 10 8 8 6 6 5 4 5 5 6 6
7 5 5 7 7 6 6 8 8 9 7 6 6 5 5 6 6 6 7 8 9 9 9 9 8 8 8 10 9 9 10 10 10 9 8 6 5 4 4 4 5 6 5
6 5 7 7 7 6 7 9 9 7 7 6 6 5 5 6 6 7 8 8 10 11 11 11 10 9 9 9 10 9 9 9 10 10 8 6 5 5 5 5 5 6 6
6 6 7 7 7 8 8 9 8 8 6 6 7 5 5 6 6 7 8 9 10 11 11 12 11 11 10 11 9 10 9 9 10 9 7 6 6 5 6 6 6 6 6
7 7 7 7 8 8 8 8 9 9 9 7 6 7 5 6 6 7 8 9 10 11 11 11 12 11 11 11 11 11 10 9 9 9 8 8 8 7 7 6 7 7 7
7 7 7 9 10 9 9 8 7 6 6 6 6 7 5 6 7 7 8 9 9 11 12 12 11 11 12 12 10 10 10 10 10 9 9 10 10 9 9 8 8 8 8
7 8 9 10 10 10 10 8 7 7 6 7 7 7 6 7 7 7 8 8 9 10 10 10 11 10 9 9 9 9 9 9 9 10 11 12 11 11 11 10 10 9 9